Regional Weather Roundup
Issued by NWS

Home | Current Version | Previous Version | Text Only | Print | Product List | Glossary Off
Versions: 1 2 3 4 5 6 7 8 9 10 11 12 13 14 15 16 17 18 19 20 21 22 23 24 25 26 27 28 29 30 31 32 33 34 35 36 37 38 39 40 41 42 43 44 45 46 47 48 49 50

000
ASUS43 KIND 200759
RWRIN

WEATHER ROUNDUP FOR INDIANA
NATIONAL WEATHER SERVICE INDIANAPOLIS IN
400 AM EDT SUN APR 20 2014

NOTE: "FAIR" INDICATES FEW OR NO CLOUDS BELOW 12,000 FEET WITH NO
SIGNIFICANT WEATHER AND/OR OBSTRUCTIONS TO VISIBILITY.

* - STATION DOES NOT REPORT WEATHER SUCH AS PRECIPITATION OR FOG.

+ - STATION NOT QUALITY CONTROLLED BY THE NATIONAL WEATHER SERVICE.
    USE DATA WITH CAUTION...ESPECIALLY DEWPOINT AND RELATIVE
    HUMIDITY OBSERVATIONS.

INZ001>003-010>013-019-020-200900-
NORTHWEST INDIANA

CITY           SKY/WX    TMP DP  RH WIND       PRES   REMARKS
VALPARAISO     PTCLDY    38  27  64 E6        30.26F

$$

LMZ046-743>745-200900-
SOUTHERN LAKE MICHIGAN

STATION/POSITION TIME  TEMP WIND        PRES
                       AIR  DIR/SP/G
                 (UTC) (F)  (DEG/KT/KT) (MB)
MICHIGAN CITY    0700   49  120/ 13/ 16   N/A

$$

INZ004-005-014>016-021>024-200900-
NORTH CENTRAL INDIANA

CITY           SKY/WX    TMP DP  RH WIND       PRES   REMARKS
GOSHEN         PTCLDY    42  30  62 SE9       30.28S
SOUTH BEND     PTCLDY    44  27  51 SE7       30.28

$$

INZ006>009-017-018-025>027-200900-
NORTHEAST INDIANA

CITY           SKY/WX    TMP DP  RH WIND       PRES   REMARKS
ANGOLA *+      CLEAR     37  30  75 SE7       30.30R
FORT WAYNE     PTCLDY    37  29  72 E8        30.30F

$$

INZ028-029-035-036-043>045-051>053-200900-
WEST CENTRAL INDIANA

CITY           SKY/WX    TMP DP  RH WIND       PRES   REMARKS
GREENCASTLE +  PTCLDY    45  36  70 E5        30.25S
LAFAYETTE      PTCLDY    44  32  62 E9        30.25F
TERRE HAUTE    CLEAR     47  37  68 E3        30.23F

$$

INZ030>032-037>040-046>048-054>057-064-065-200900-
CENTRAL INDIANA

CITY           SKY/WX    TMP DP  RH WIND       PRES   REMARKS
INDIANAPOLIS   MOCLDY    48  32  53 E8        30.25F
-EAGLE CREEK   PTCLDY    47  31  53 E5        30.25F
KOKOMO *+      PTCLDY    41  27  56 E9        30.28F
MT COMFORT *+  PTCLDY    41  34  75 NE6       30.27S
SHELBYVILLE    PTCLDY    46  35  65 NE8       30.26R

$$

INZ033-034-041-042-049-050-058-059-200900-
EAST CENTRAL INDIANA

CITY           SKY/WX    TMP DP  RH WIND       PRES   REMARKS
MUNCIE         PTCLDY    39  29  67 NE3       30.28S

$$

INZ060-061-067>069-081>083-085>088-200900-
SOUTHWEST INDIANA

CITY           SKY/WX    TMP DP  RH WIND       PRES   REMARKS
EVANSVILLE     CLEAR     54  40  59 N5        30.20F
HUNTINGBURG *+ PTCLDY    54  36  50 CALM      30.22R

$$

INZ062-063-066-070>080-084-089>092-200900-
SOUTH CENTRAL AND SOUTHEAST INDIANA

CITY           SKY/WX    TMP DP  RH WIND       PRES   REMARKS
BLOOMINGTON    PTCLDY    44  37  76 CALM      30.24R

$$




USA.gov is the U.S. government's official web portal to all federal, state and local government web resources and services.